Main page
METAR-TAF:

METAR-TAF

Airports :

Oil platform

K13-a, Netherlands

latitude: 53-13-04N, longitude: 3-13-13E, elevation: 31 m

Current weather observation

The report was made 37 minutes ago, at 23:55 UTC
Wind 25 kt from the West/Southwest
Temperature 9°C
Humidity 87%
Pressure 1018 hPa

METAR: EHJR 202355Z AUTO 24025KT //// // ///////// 09/07 Q1018 RE// W08/H18

Time: 01:32 (00:32 UTC)


TAF: missing

Weather observations and forecasts of more than 4000 airports (METAR and TAF reports).

The available stations are represented by yellow and red dots on the map.

Hover mouse over dot to see the name of the station.

Then click to see weather observations and forecasts.

To change the map : click on the green buttons with a black cross to zoom in, on the green button with a dash to zoom out, or on the green arrows for adjacent maps.


METAR-TAF: